Hourly Data Report for September 08, 2017

All times are specified in Local Standard Time (LST). Add 1 hour to adjust for Daylight Saving Time where and when it is observed.

FREDERICTON
NEW BRUNSWICK

45°52'08.000" N
66°32'14.000" W
20.70 m
8101505
71700
YFC

Related Data

No related data is available for this station

Download Data

Hourly Data (September 2017)
Hourly Data Report for September 8, 2017
Temp Definition
°C
Dew Point Temp Definition
°C
Rel Hum Definition
%
Wind Dir Definition
10's deg

Wind Spd Definition
km/h
Visibility Definition
km
Stn Press Definition
kPa
Hmdx Definition


Wind Chill Definition


Weather Definition


TIME
00:00 Legend Double Dagger 14.4 13.9 97 20 11 16.1 100.67     LegendNANA
01:00 Legend Double Dagger 13.5 13.2 98 19 13 9.7 100.69     Fog
02:00 Legend Double Dagger 13.8 13.5 98 21 8 12.9 100.75     LegendNANA
03:00 Legend Double Dagger 13.6 13.3 98 17 9 14.5 100.78     LegendNANA
04:00 Legend Double Dagger 13.0 12.7 98 22 5 3.6 100.78     Fog
05:00 Legend Double Dagger 11.2 11.1 99 21 5 0.6 100.81     Fog
06:00 Legend Double Dagger 12.5 12.4 99 19 8 0.6 100.92     Fog
07:00 Legend Double Dagger 12.8 12.7 99 21 5 11.3 101.02     LegendNANA
08:00 Legend Double Dagger 14.4 13.4 94 21 11 16.1 101.11     LegendNANA
09:00 Legend Double Dagger 15.8 13.7 87 18 11 16.1 101.17     LegendNANA
10:00 Legend Double Dagger 17.5 13.1 75 22 11 16.1 101.18     LegendNANA
11:00 Legend Double Dagger 18.4 12.1 66 25 8 16.1 101.20     LegendNANA
12:00 Legend Double Dagger 19.9 11.8 59 18 9 16.1 101.19     LegendNANA
13:00 Legend Double Dagger 22.7 10.1 44 22 24 16.1 101.17     LegendNANA
14:00 Legend Double Dagger 21.6 8.5 43 20 18 16.1 101.18     LegendNANA
15:00 Legend Double Dagger 23.0 9.3 41 21 22 16.1 101.20     LegendNANA
16:00 Legend Double Dagger 21.4 10.0 48 24 17 16.1 101.24     LegendNANA
17:00 Legend Double Dagger 21.1 10.5 50 20 17 16.1 101.27     LegendNANA
18:00 Legend Double Dagger 15.8 13.2 84 18 11 16.1 101.34     LegendNANA
19:00 Legend Double Dagger 15.0 13.1 88 36 8 16.1 101.42     LegendNANA
20:00 Legend Double Dagger 14.6 13.3 92 25 5 16.1 101.51     Rain
21:00 Legend Double Dagger 13.8 12.8 94 21 5 16.1 101.50     LegendNANA
22:00 Legend Double Dagger 13.3 12.8 97   0 16.1 101.55     LegendNANA
23:00 Legend Double Dagger 13.1 12.2 94 22 5 16.1 101.57     LegendNANA

Notes on Data Quality.

Legend

  • E = Estimated
  • M = Missing
  • NA = Not Available
  • ‡ = Partner data that is not subject to review by the National Climate Archives
Date modified: